Regional Weather Roundup
Issued by NWS

Home | Current Version | Previous Version | Graphics & Text | Print | Product List | Glossary On
Versions: 1 2 3 4 5 6 7 8 9 10 11 12 13 14 15 16 17 18 19 20 21 22 23 24 25 26 27 28 29 30 31 32 33 34 35 36 37 38 39 40 41 42 43 44 45 46 47 48 49 50
000
ASUS43 KOAX 040310
RWRNE

WEATHER ROUNDUP FOR NEBRASKA
NATIONAL WEATHER SERVICE OMAHA NE
1000 PM CDT TUE MAY 03 2016

NOTES: SATELLITE DATA IS BEING USED TO AUGMENT CLOUD COVER ABOVE
       12000 FEET.
       "FAIR" INDICATES FEW OR NO CLOUDS BELOW 12,000 FEET WITH NO
       SIGNIFICANT WEATHER AND/OR OBSTRUCTIONS TO VISIBILITY.

  * THESE STATIONS DO NOT REPORT WEATHER SUCH AS RAIN...SNOW OR FOG.

NEZ001>004-019>022-054>056-040400-
NEBRASKA PANHANDLE

CITY           SKY/WX    TMP DP  RH WIND       PRES   REMARKS
SCOTTSBLUFF    CLEAR     56  40  55 NE7       30.14R
ALLIANCE       CLEAR     52  40  63 N9        30.12R
CHADRON        CLEAR     50  42  74 SW5       30.11R
KIMBALL        CLEAR     53  39  59 CALM      30.19R
SIDNEY         CLEAR     44  35  70 CALM      30.15R
$$

NEZ057>060-069>072-079>082-040400-
SOUTHWEST NEBRASKA

CITY           SKY/WX    TMP DP  RH WIND       PRES   REMARKS
NORTH PLATTE   CLEAR     48  40  73 NW6       30.06R
IMPERIAL       CLEAR     58  36  43 NW5       30.09R
LEXINGTON      CLEAR     52  45  76 NW8       30.03R
MCCOOK         CLEAR     53  39  59 W7        30.05R
OGALLALA       CLEAR     49  35  58 NW3       30.10R
$$

NEZ005>010-023>029-035>040-094-040400-
NORTH CENTRAL NEBRASKA

CITY           SKY/WX    TMP DP  RH WIND       PRES   REMARKS
VALENTINE      CLEAR     57  41  55 NW9       30.02R
AINSWORTH      CLEAR     56  43  61 W6        30.01S
BROKEN BOW     CLEAR     55  40  56 N5        30.01R
O`NEILL        CLEAR     57  45  62 W8        29.94S
ORD            CLEAR     53  43  68 W8        29.97S
THEDFORD       CLEAR     55  41  58 W5        30.05S
$$

NEZ041-046>049-061>064-073>077-083>087-040400-
SOUTH CENTRAL NEBRASKA

CITY           SKY/WX    TMP DP  RH WIND       PRES   REMARKS
GRAND ISLAND   CLEAR     55  44  66 W8        29.98R
AURORA         CLEAR     54  44  69 W6        29.97R
HASTINGS       CLEAR     55  43  63 W7        29.98S
HEBRON         CLEAR     57  46  66 W7        29.96F
HOLDREGE       CLEAR     56  42  59 W6        30.01S
KEARNEY *      CLEAR     59  43  55 W7        30.00S
YORK           CLEAR     55  46  71 NW8       29.96R
$$

NEZ011>018-030>034-042>045-040400-
NORTHEAST NEBRASKA

CITY           SKY/WX    TMP DP  RH WIND       PRES   REMARKS
NORFOLK        CLEAR     59  43  55 W10       29.88F
ALBION         CLEAR     55  42  62 NW5       29.93F
BLAIR          CLEAR     60  45  57 SW8       29.87F
COLUMBUS *     CLEAR     59  39  47 W8        29.92F
FREMONT        CLEAR     59  45  59 W6        29.89F
TEKAMAH        CLEAR     57  47  69 W12       29.84F
WAYNE          CLEAR     60  45  57 W12       29.87S
$$

NEZ050>053-065>068-078-088>093-040400-
SOUTHEAST NEBRASKA

CITY           SKY/WX    TMP DP  RH WIND       PRES   REMARKS
LINCOLN        CLEAR     62  44  51 W7        29.93S
OMAHA EPPLEY   CLEAR     63  43  48 W7        29.86F
BEATRICE       CLEAR     56  43  61 W6        29.94S
FALLS CITY     CLEAR     59  43  55 SW8       29.91S
NEBRASKA CITY  CLEAR     57  43  59 W9        29.90F
PLATTSMOUTH    CLEAR     61  45  54 W8        29.89F
$$

NEZ044-045-051>053-067-040400-
OMAHA AREA

CITY           SKY/WX    TMP DP  RH WIND       PRES   REMARKS
OMAHA EPPLEY   CLEAR     63  43  48 W7        29.86F
BLAIR          CLEAR     60  45  57 SW8       29.87F
FREMONT        CLEAR     59  45  59 W6        29.89F
MILLARD        CLEAR     58  45  61 W3        29.88F
OFFUTT AFB     CLEAR     60  44  56 W6        29.87F
PLATTSMOUTH    CLEAR     61  45  54 W8        29.89F
WAHOO          FAIR      59  45  58 W8        29.89F
$$




USA.gov is the U.S. government's official web portal to all federal, state and local government web resources and services.